Regional Weather Roundup
Issued by NWS

Home | Current Version | Previous Version | Text Only | Print | Product List | Glossary Off
Versions: 1 2 3 4 5 6 7 8 9 10 11 12 13 14 15 16 17 18 19 20 21 22 23 24 25 26 27 28 29 30 31 32 33 34 35 36 37 38 39 40 41 42 43 44 45 46 47 48 49 50

948
ASUS43 KFSD 242002
RWRSD

WEATHER ROUNDUP FOR SOUTH DAKOTA
NATIONAL WEATHER SERVICE SIOUX FALLS SD
300 PM CDT TUE APR 24 2018

NOTE: "FAIR" INDICATES FEW OR NO CLOUDS BELOW 12,000 FEET WITH NO
SIGNIFICANT WEATHER AND/OR OBSTRUCTIONS TO VISIBILITY.


SDZ001>005-009-010-012>017-242100-
NORTHWEST AND NORTH CENTRAL SOUTH DAKOTA

CITY           SKY/WX    TMP DP  RH WIND       PRES   REMARKS
BUFFALO          N/A     50  20  30 NW12      30.40F
FAITH            N/A     48  30  49 N18G25    30.42F
MOBRIDGE       SUNNY     55  33  43 N16G25    30.37F
$$

SDZ012>016-024>037-041>051-057-063-072>074-242100-
SOUTHWEST AND SOUTH CENTRAL SOUTH DAKOTA

CITY           SKY/WX    TMP DP  RH WIND       PRES   REMARKS
RAPID CTY ARPT CLOUDY    43  28  55 N18       30.45F
PIERRE         CLOUDY    42  38  85 N16       30.41S
CUSTER         CLOUDY    37  14  38 NE8G18    30.40S
ELLSWORTH AFB  CLOUDY    43  27  53 N18       30.44
PHILIP         LGT RAIN  41  37  86 N9        30.45S
PINE RIDGE     LGT RAIN  40  33  76 N14G23    30.44F
SPEARFISH      PTSUNNY   41  27  56 NW8       30.47F
WINNER         LGT RAIN  41  37  86 NW18G26   30.36R FOG
$$

SDZ004>011-016>023-039-040-242100-
NORTHEAST SOUTH DAKOTA

CITY           SKY/WX    TMP DP  RH WIND       PRES   REMARKS
ABERDEEN       MOSUNNY   53  37  54 N17G30    30.38S
WATERTOWN      CLOUDY    43  38  82 N17G29    30.30S
BROOKINGS      CLOUDY    43  40  89 N18       30.28R
SISSETON         N/A     52  37  56 N21G29    30.32F
$$

SDZ017-020-022-023-036>040-048>070-242100-
SOUTHEAST SOUTH DAKOTA

CITY           SKY/WX    TMP DP  RH WIND       PRES   REMARKS
SIOUX FALLS    CLOUDY    49  40  71 NE13G22   30.24R
HURON          CLOUDY    44  38  79 N20G28    30.33S
CHAMBERLAIN    CLOUDY    42  42 100 N16       30.36R
MITCHELL       LGT RAIN  47  42  83 N22G28    30.30R
YANKTON        LGT RAIN  47  44  90 N10       30.24R
$$

ABBREVIATIONS USED IN REMARKS
   TC - TEMPERATURE IN CELSIUS
  WCI - WIND CHILL INDEX
   HX - HEAT INDEX
  VSB - VISIBILITY





USA.gov is the U.S. government's official web portal to all federal, state and local government web resources and services.